Dewpoint
55 55 56 56 56 56 56 56 56 56 56 56 56 57 57 57 57 57 57 57 57 57 57 57 57 57 57 57 57 56 56 56 55 55 55 55 55 55 54 54 54 54 53 53 53 53 53 53 53 53 53 52 51 51 50 50 49 49 48 48 47 46 45 45 44 42 41 40 40
55 55 56 56 56 56 56 56 56 56 56 56 57 57 57 57 57 57 57 57 57 57 57 57 57 57 57 57 57 57 56 56 56 56 56 55 55 55 55 54 54 54 54 53 53 53 53 53 53 53 53 53 53 52 52 51 50 50 49 49 48 47 46 45 44 43 41 41 41
55 55 55 56 56 56 56 56 56 56 56 56 57 57 57 57 57 57 57 58 58 57 57 58 57 57 57 56 57 57 57 57 56 56 56 56 56 55 55 55 54 54 54 54 53 53 53 53 54 54 54 54 54 53 53 53 52 52 51 50 49 48 47 46 45 44 44 44 44
55 55 55 55 55 55 56 56 56 56 56 57 57 57 57 57 57 57 58 58 57 57 57 58 57 57 57 57 57 57 57 57 57 57 56 56 56 56 56 55 55 54 54 54 54 54 53 53 54 54 54 54 54 54 54 54 54 53 52 50 49 49 48 47 46 46 46 46 45
55 55 55 55 55 56 56 56 56 56 56 57 57 57 57 57 57 58 58 58 58 58 57 57 57 57 57 57 57 57 56 56 57 57 57 57 57 56 56 56 55 55 54 54 54 54 54 54 54 54 54 54 54 54 54 54 53 53 52 51 50 49 49 48 48 48 47 47 47
55 55 55 55 55 55 56 56 56 56 56 57 57 57 57 57 57 57 58 58 58 57 57 57 57 58 57 57 57 57 57 56 57 57 57 57 57 57 56 56 55 55 54 54 54 54 54 54 54 54 54 54 54 54 53 53 52 52 51 50 49 50 50 49 49 48 48 48 48
55 55 55 55 55 55 56 56 56 56 57 57 57 57 57 57 57 57 58 58 58 57 57 58 58 58 57 57 57 57 57 57 57 57 57 58 57 57 56 56 55 55 54 54 54 54 54 54 54 54 54 54 54 53 52 51 51 51 50 49 48 49 49 49 49 49 49 48 48
55 55 55 55 55 55 55 56 56 56 56 57 57 57 57 57 57 57 57 58 58 58 57 58 58 57 57 57 57 57 57 56 57 57 57 58 58 57 57 56 55 55 54 54 54 54 54 54 54 54 54 54 53 52 51 51 51 51 50 49 48 48 49 49 49 49 49 48 47
54 54 55 55 55 55 55 56 56 56 56 57 57 57 57 57 57 57 57 57 57 57 57 58 57 57 57 57 57 57 57 57 57 57 57 58 58 57 57 56 55 55 55 54 54 54 54 55 55 54 54 54 53 52 51 51 51 50 49 49 48 49 49 49 49 49 49 48 47
54 54 54 54 55 55 55 56 56 56 56 57 57 57 57 57 57 57 57 57 57 57 57 57 57 57 57 57 57 57 57 57 57 57 57 58 58 58 57 56 56 55 55 55 54 55 55 55 55 54 54 54 53 52 52 51 51 50 49 49 49 49 48 49 48 48 48 47 46
54 54 54 54 55 55 55 56 56 56 56 57 57 57 57 57 57 57 57 57 57 57 57 57 57 57 57 56 56 56 56 57 57 57 57 57 58 58 57 57 56 55 55 55 55 55 55 55 54 54 54 53 53 52 52 51 50 49 49 49 48 48 48 47 48 47 47 46 45
54 54 54 54 55 55 55 56 56 56 56 57 57 57 57 57 57 57 57 57 57 57 57 56 56 56 57 56 56 56 56 57 57 57 57 57 58 58 57 57 56 56 55 55 55 55 55 55 54 54 53 53 53 52 51 51 50 49 49 48 48 48 47 47 47 46 46 45 45
54 54 54 54 54 55 55 56 56 56 56 57 57 57 57 57 57 57 57 57 57 57 56 56 56 56 56 56 56 56 56 57 57 57 57 57 58 57 57 56 56 56 56 55 55 55 55 55 54 54 53 52 52 52 51 50 49 49 48 48 48 47 46 46 46 45 45 45 44
54 54 54 54 54 55 55 55 56 56 56 57 57 57 57 57 57 57 57 57 56 56 56 56 56 56 56 56 56 56 56 57 57 57 57 57 57 56 56 56 56 56 56 55 54 54 55 54 54 53 52 52 51 51 50 50 49 49 48 48 47 46 46 45 45 45 44 43 43
54 54 54 54 54 55 55 55 56 56 56 57 57 57 57 57 57 57 57 56 56 56 56 56 56 56 56 56 56 56 56 57 57 57 57 56 56 55 55 56 56 55 55 54 54 54 54 54 53 53 52 51 51 50 50 49 49 49 48 47 47 46 45 45 45 44 43 43 42
54 54 54 54 55 55 55 55 56 56 57 57 57 57 57 57 57 56 56 56 56 56 56 56 56 56 55 55 56 56 57 57 57 57 56 56 55 55 55 55 55 55 55 54 54 54 54 53 53 52 51 51 50 49 49 49 49 48 48 47 46 46 45 45 44 44 43 42 42
54 54 54 54 55 55 55 55 56 56 57 57 57 57 57 57 56 56 56 56 56 56 56 56 56 56 55 56 56 57 57 57 57 57 56 55 55 55 55 55 55 54 54 54 54 54 53 53 52 51 51 50 49 49 49 48 48 48 47 47 46 45 45 45 44 43 43 42 41
54 54 54 55 55 55 55 55 56 56 57 57 57 57 57 56 56 56 56 56 56 56 55 55 55 55 55 56 56 57 57 57 57 56 56 55 55 55 54 54 54 54 54 54 53 53 52 52 51 50 50 49 49 49 48 48 47 47 46 46 45 45 45 44 44 43 42 42 41
54 54 54 55 55 55 55 55 56 56 57 57 56 56 56 56 56 56 56 56 56 56 55 55 55 55 56 56 57 57 57 57 56 56 55 55 55 54 54 54 54 54 54 53 52 52 51 50 50 49 49 49 49 48 48 47 47 46 45 45 45 44 44 43 43 42 42 41 40
54 54 54 55 55 55 55 56 56 56 56 56 56 56 56 56 56 56 56 56 56 56 56 55 55 55 56 56 57 57 57 57 56 55 55 54 54 54 54 54 53 53 53 52 51 51 50 49 49 49 48 48 48 47 46 46 45 45 44 44 43 43 42 42 41 41 40 40 40
54 54 54 55 55 55 55 56 56 56 56 56 56 56 56 56 56 56 56 56 56 56 56 55 55 56 56 57 57 57 57 56 55 55 54 54 54 54 54 53 53 52 51 51 50 50 49 49 49 48 48 47 47 46 45 45 44 44 43 43 42 41 41 40 40 39 39 39 39
54 54 55 55 55 55 56 56 56 56 56 56 56 56 56 56 56 56 56 56 56 56 55 55 56 56 56 57 57 56 56 56 55 55 54 54 54 53 53 52 52 51 50 50 49 49 49 48 48 48 47 47 46 45 45 44 43 43 42 41 41 40 40 39 39 38 38 38 38
54 54 54 55 55 55 56 56 56 56 56 56 56 56 56 56 56 56 56 56 56 56 55 56 56 56 56 57 56 56 56 55 55 54 54 54 53 52 52 51 51 50 49 49 49 49 48 48 48 47 47 46 45 45 44 43 42 41 41 40 40 39 39 38 38 37 37 37 37
54 54 54 54 55 55 56 56 56 56 56 56 56 56 56 55 56 56 56 56 55 55 55 56 56 56 56 56 56 56 55 55 54 54 53 53 52 51 51 51 50 49 49 49 49 48 48 48 47 46 46 45 45 44 43 43 42 41 40 40 39 38 37 37 36 36 36 36 37
54 54 54 54 55 55 56 56 56 56 56 56 56 55 55 55 55 55 55 55 55 55 56 56 56 56 56 56 55 55 54 54 53 53 52 51 51 51 50 50 49 49 49 49 49 49 49 48 47 46 45 45 44 43 43 42 41 40 40 39 38 37 36 36 36 36 36 37 38
54 54 54 54 55 55 56 56 56 55 55 55 55 55 55 55 55 55 55 55 55 55 56 56 56 56 55 55 55 54 54 53 52 51 51 50 50 50 49 49 49 49 49 49 49 49 49 49 48 46 45 44 44 43 42 42 41 40 39 39 38 37 36 35 35 35 36 36 37
54 54 54 55 55 55 55 55 55 55 55 55 55 55 55 55 55 55 55 55 55 55 55 55 55 55 55 55 54 54 53 52 52 51 50 50 49 49 49 49 49 49 49 49 49 49 49 49 48 46 45 44 43 42 41 41 40 40 39 39 38 36 36 35 35 35 36 36 36
54 54 54 55 55 55 55 55 55 55 55 55 55 55 55 55 55 55 55 55 55 55 55 55 55 55 55 54 54 53 52 52 51 51 50 50 49 49 49 49 49 49 49 50 50 49 49 49 48 46 45 43 42 41 41 40 40 39 38 37 36 36 35 35 35 35 35 35 35
54 54 54 55 55 55 55 55 55 55 55 55 55 55 55 55 55 55 55 55 55 55 55 55 55 55 54 54 53 52 51 51 51 50 50 49 49 49 49 49 49 49 50 50 50 49 49 48 47 46 45 43 41 41 40 40 39 38 37 36 36 35 35 35 35 35 34 34 33
54 54 55 55 55 55 55 55 55 55 55 55 55 55 55 55 55 55 55 55 55 55 55 55 55 54 53 53 52 51 51 51 50 50 49 49 49 49 49 49 49 49 49 50 49 49 48 47 46 45 45 43 41 40 39 39 38 37 36 36 35 35 35 35 34 33 32 31 31
54 54 55 55 55 55 55 55 55 55 55 55 55 55 55 55 55 55 55 55 55 55 54 54 54 53 52 52 51 51 50 50 50 49 49 49 49 49 49 49 49 49 49 49 49 48 47 46 45 45 44 43 41 39 38 37 37 36 36 35 35 34 34 33 32 31 30 30 29
54 55 55 55 55 55 55 55 55 55 55 55 55 55 55 55 55 55 55 55 54 54 54 53 52 52 51 51 50 50 50 49 49 49 49 49 48 48 48 48 48 48 49 49 48 47 47 46 45 44 43 42 40 38 36 36 36 35 35 34 34 33 32 31 31 30 29 29 28
54 55 55 55 55 55 55 55 55 55 55 55 55 55 55 55 55 55 55 54 54 54 53 52 51 51 50 50 50 49 49 49 49 49 49 49 48 48 48 48 48 48 48 48 47 47 46 45 44 43 42 40 38 36 36 36 35 35 34 33 33 32 32 31 31 30 30 29 28
55 55 55 55 55 55 55 55 55 55 55 55 55 55 55 55 55 55 54 54 54 53 52 51 51 50 50 50 49 49 49 49 49 49 48 48 48 47 47 47 47 48 48 47 47 46 45 44 43 42 41 40 38 36 36 36 35 35 34 33 33 32 32 31 31 31 31 30 30
55 55 55 55 55 55 55 55 55 55 55 55 55 55 55 55 54 54 54 53 53 52 52 51 50 50 50 50 49 49 49 48 48 48 48 47 47 47 46 46 47 47 47 46 46 45 45 44 43 42 40 39 37 36 36 36 35 34 34 33 33 32 32 32 32 31 31 31 31
55 55 55 55 55 55 55 55 55 55 55 55 55 54 54 54 54 54 53 52 52 51 51 50 50 49 49 49 49 49 48 48 47 47 47 47 46 46 46 46 46 46 46 45 45 45 44 43 42 41 40 38 36 36 36 35 34 34 33 33 32 32 32 31 31 31 31 31 31
55 55 55 55 55 55 55 55 55 55 54 54 54 54 54 54 53 53 52 51 51 50 50 49 49 49 49 49 48 48 48 48 47 47 46 46 46 45 45 45 45 45 45 45 44 44 43 42 42 40 39 37 36 35 35 34 34 33 32 32 32 31 31 31 31 31 31 31 31
55 55 55 55 55 55 55 55 54 54 54 54 54 54 54 53 52 52 51 50 50 49 49 49 49 48 48 48 48 48 48 48 47 46 46 45 45 45 45 44 44 44 44 44 44 43 42 42 41 40 38 36 35 35 34 34 33 32 32 32 32 31 31 31 32 32 32 32 33
55 55 55 55 55 55 55 54 54 54 54 54 54 53 53 52 52 51 51 50 49 49 49 48 48 48 48 48 47 47 47 47 47 46 45 45 45 44 44 43 43 43 43 43 43 42 42 41 40 40 38 36 35 34 34 33 33 32 32 32 32 32 32 32 32 33 33 34 35
55 55 55 55 55 55 54 54 54 54 54 53 53 52 52 51 51 51 50 50 49 49 48 48 47 47 47 47 47 47 47 47 46 46 45 45 44 44 43 42 42 42 42 42 42 42 41 41 40 40 38 36 35 34 34 33 33 32 32 32 32 32 32 31 32 32 33 33 34
55 55 55 55 55 54 54 54 54 54 53 53 52 52 51 51 50 50 49 49 49 48 48 48 47 47 47 47 47 46 46 45 45 45 45 44 44 43 43 42 41 41 41 41 41 41 41 40 40 39 38 36 35 34 34 33 32 32 32 32 32 32 31 31 31 31 31 31 33